Location: Bieg
(49.3499°N, 10.3835°E)
Time: 22:17:35
(UTC+00:00)

CZ-2D R/B - Pass Details

Date: 23 May 2024
Orbit: 791 x 843 km, 98.8° (Epoch: 14 June)

Event Time Altitude Azimuth Distance (km) Brightness Sun altitude
Rises 01:50:11 0° 12° (NNE) 3,414 6.7 -12.0°
Reaches altitude 10° 01:52:35 10° 10° (N) 2,473 5.7 -11.8°
Maximum altitude 01:58:01 65° 290° (WNW) 920 2.3 -11.2°
Enters shadow 02:02:43 14° 210° (SSW) 2,186 3.7 -10.7°
